Weather History for Crane Lake, MN

Change the Weather History Date:

Monday, January 21, 2013

  Actual Average Record
Temperature  
Mean Temperature -18 °F -  
Max Temperature -11 °F 14 °F 28 °F (1997)
Min Temperature -25 °F -2 °F -38 °F (2011)
Degree Days  
Heating Degree Days 83    
Moisture  
Dew Point -25 °F    
Average Humidity 77    
Maximum Humidity 84    
Minimum Humidity 69    
Precipitation  
Precipitation 0.00 in - - ()
Sea Level Pressure  
Sea Level Pressure 30.16 in    
Wind  
Wind Speed 3 mph (WNW)    
Max Wind Speed 8 mph    
Max Gust Speed 16 mph    
Visibility 8 miles    
Events Snow    
Averages and records for this station are not official NWS values.
T = Trace of Precipitation, MM = Missing Value Source: NWS Daily Summary

Daily Weather History Graph

Daily Weather History Graph

Search for Another Location

Airport:

Trip Planner

Search our weather history database for the weather conditions in past years. The results will help you decide how hot, cold, wet, or windy it might be!

Date:

Astronomy

Jan. 21, 2013 Rise Set
Actual Time 7:50 AM CST 4:52 PM CST
Civil Twilight 7:16 AM CST 5:27 PM CST
Nautical Twilight 6:37 AM CST 6:05 PM CST
Astronomical Twilight 6:00 AM CST 6:42 PM CST
Moon 12:30 PM CST (1/21) 3:20 AM CST (1/21)
Length of Visible Light 10h 11m
Length of Day
9h 01m
Waxing Gibbous, 75% of the Moon is Illuminated
Jan 21
Waxing Gibbous
Jan 26
Full
Feb 3
Last Quarter
Feb 10
New
Feb 17
First Quarter

Hourly Weather History & Observations

Time (CST) Temp. Windchill Dew Point Humidity Pressure Visibility Wind Dir Wind Speed Gust Speed Precip Events Conditions
12:15 AM -16.6 °F -26.8 °F -20.2 °F 84% 30.15 in 7.0 mi West 3.5 mph - N/A   Clear
12:34 AM -16.6 °F -26.8 °F -20.2 °F 84% 30.15 in 5.0 mi West 3.5 mph - N/A   Clear
12:54 AM -18.4 °F -31.4 °F -22.0 °F 84% - 10.0 mi West 4.6 mph - N/A   Clear
1:14 AM -18.4 °F -31.4 °F -23.8 °F 76% 30.14 in 10.0 mi West 4.6 mph - N/A   Clear
1:34 AM -18.4 °F -31.4 °F -23.8 °F 76% 30.15 in 10.0 mi West 4.6 mph - N/A   Clear
1:54 AM -18.4 °F -28.9 °F -23.8 °F 76% 30.15 in 10.0 mi West 3.5 mph - N/A   Clear
2:14 AM -20.2 °F -30.9 °F -25.6 °F 76% 30.15 in 10.0 mi West 3.5 mph - N/A   Clear
2:34 AM -20.2 °F -30.9 °F -25.6 °F 76% 30.15 in 10.0 mi West 3.5 mph - N/A   Clear
2:54 AM -20.2 °F - -25.6 °F 76% 30.15 in 10.0 mi Calm Calm - N/A   Clear
3:14 AM -20.2 °F -33.5 °F -25.6 °F 76% 30.15 in 10.0 mi West 4.6 mph - N/A   Clear
3:34 AM -22.0 °F -35.6 °F -27.4 °F 76% 30.15 in 10.0 mi West 4.6 mph - N/A   Clear
3:54 AM -22.0 °F -35.6 °F -27.4 °F 76% 30.16 in 10.0 mi West 4.6 mph - N/A   Clear
4:14 AM -22.0 °F -33.0 °F -27.4 °F 76% 30.15 in 10.0 mi West 3.5 mph - N/A   Clear
4:34 AM -22.0 °F - -27.4 °F 76% 30.15 in 10.0 mi Calm Calm - N/A   Clear
4:54 AM -23.8 °F -37.7 °F -27.4 °F 83% 30.15 in 10.0 mi West 4.6 mph - N/A   Clear
5:14 AM -23.8 °F -35.0 °F -29.2 °F 76% 30.16 in 10.0 mi WNW 3.5 mph - N/A   Clear
5:54 AM -23.8 °F -35.0 °F -29.2 °F 76% 30.15 in 10.0 mi West 3.5 mph - N/A   Clear
6:14 AM -25.6 °F - -31.0 °F 76% 30.16 in 10.0 mi Calm Calm - N/A   Clear
6:34 AM -25.6 °F -39.8 °F -31.0 °F 76% 30.16 in 10.0 mi West 4.6 mph - N/A   Clear
6:54 AM -25.6 °F -37.1 °F -29.2 °F 83% 30.16 in 7.0 mi West 3.5 mph - N/A   Clear
7:14 AM -25.6 °F -37.1 °F -31.0 °F 76% 30.16 in 10.0 mi West 3.5 mph - N/A   Clear
7:34 AM -25.6 °F - -31.0 °F 76% 30.17 in 10.0 mi Calm Calm - N/A   Clear
7:54 AM -25.6 °F - -32.8 °F 69% 30.17 in 10.0 mi Calm Calm - N/A   Clear
8:14 AM -25.6 °F - -31.0 °F 76% 30.17 in 10.0 mi Calm Calm - N/A   Clear
8:34 AM -25.6 °F -37.1 °F -31.0 °F 76% 30.17 in 10.0 mi West 3.5 mph - N/A   Scattered Clouds
8:54 AM -23.8 °F - -29.2 °F 76% 30.17 in 10.0 mi Calm Calm - N/A   Scattered Clouds
9:14 AM -23.8 °F -37.7 °F -27.4 °F 83% 30.17 in 10.0 mi WSW 4.6 mph - N/A   Scattered Clouds
9:34 AM -20.2 °F -33.5 °F -27.4 °F 69% 30.18 in 10.0 mi NW 4.6 mph - N/A   Clear
9:54 AM -20.2 °F -37.3 °F -25.6 °F 76% 30.18 in 10.0 mi West 6.9 mph - N/A   Clear
10:14 AM -16.6 °F -31.3 °F -22.0 °F 76% 30.18 in 10.0 mi NW 5.8 mph - N/A   Clear
10:34 AM -14.8 °F -27.2 °F -20.2 °F 77% 30.18 in 7.0 mi West 4.6 mph - N/A   Scattered Clouds
10:54 AM -14.8 °F -24.8 °F -20.2 °F 77% 30.18 in 4.0 mi NW 3.5 mph - N/A   Haze
11:14 AM -14.8 °F -27.2 °F -18.4 °F 84% 30.17 in 4.0 mi WNW 4.6 mph - N/A   Haze
11:34 AM -13.0 °F -27.0 °F -18.4 °F 77% 30.16 in 5.0 mi NW 5.8 mph - N/A   Haze
11:54 AM -13.0 °F -27.0 °F -18.4 °F 77% 30.16 in 7.0 mi NW 5.8 mph 16.1 mph N/A   Overcast
12:14 PM -14.8 °F -24.8 °F -18.4 °F 84% 30.15 in 7.0 mi NW 3.5 mph - N/A   Mostly Cloudy
12:34 PM -13.0 °F -25.1 °F -18.4 °F 77% 30.15 in 10.0 mi WNW 4.6 mph - N/A   Overcast
12:54 PM -13.0 °F -30.0 °F -18.4 °F 77% 30.14 in 5.0 mi NW 8.1 mph - N/A   Haze
1:14 PM -13.0 °F -27.0 °F -18.4 °F 77% 30.13 in 3.0 mi WNW 5.8 mph - N/A   Haze
1:34 PM -11.2 °F -27.8 °F -16.6 °F 77% 30.13 in 3.0 mi NW 8.1 mph - N/A   Haze
1:54 PM -13.0 °F -27.0 °F -18.4 °F 77% 30.13 in 3.0 mi NW 5.8 mph - N/A   Haze
2:14 PM -11.2 °F -24.8 °F -16.6 °F 77% 30.13 in 4.0 mi NNW 5.8 mph - N/A   Haze
2:34 PM -11.2 °F -24.8 °F -16.6 °F 77% 30.13 in 5.0 mi WNW 5.8 mph - N/A   Haze
2:54 PM -11.2 °F -24.8 °F -18.4 °F 70% 30.14 in 4.0 mi WNW 5.8 mph - N/A   Haze
3:14 PM -11.2 °F -24.8 °F -18.4 °F 70% 30.13 in 5.0 mi WNW 5.8 mph - N/A   Haze
3:34 PM -11.2 °F -26.4 °F -18.4 °F 70% 30.14 in 7.0 mi WSW 6.9 mph - N/A   Overcast
3:54 PM -13.0 °F -28.6 °F -18.4 °F 77% 30.14 in 4.0 mi NW 6.9 mph - N/A   Haze
4:14 PM -13.0 °F -27.0 °F -18.4 °F 77% 30.14 in 2.5 mi NW 5.8 mph - N/A   Haze
4:34 PM -13.0 °F -22.7 °F -18.4 °F 77% 30.14 in 2.0 mi WNW 3.5 mph - N/A   Haze
4:54 PM -14.8 °F - -20.2 °F 77% 30.15 in 10.0 mi Calm Calm - N/A   Scattered Clouds
5:14 PM -16.6 °F - -20.2 °F 84% 30.15 in 10.0 mi Calm Calm - N/A   Clear
5:34 PM -16.6 °F - -22.0 °F 76% 30.15 in 10.0 mi Calm Calm - N/A   Clear
5:54 PM -18.4 °F - -23.8 °F 76% 30.15 in 10.0 mi Calm Calm - N/A   Scattered Clouds
6:14 PM -18.4 °F - -23.8 °F 76% 30.16 in 10.0 mi Calm Calm - N/A   Mostly Cloudy
6:34 PM -18.4 °F - -23.8 °F 76% 30.16 in 7.0 mi Calm Calm - N/A Snow Light Snow
6:54 PM -20.2 °F - -27.4 °F 69% 30.16 in 10.0 mi Calm Calm - N/A   Scattered Clouds
7:14 PM -23.8 °F - -27.4 °F 83% 30.16 in 10.0 mi Calm Calm - N/A   Clear
7:34 PM -23.8 °F - -29.2 °F 76% 30.16 in 10.0 mi Calm Calm - N/A   Clear
7:54 PM -23.8 °F - -29.2 °F 76% 30.16 in 10.0 mi Calm Calm - N/A   Mostly Cloudy
8:14 PM -25.6 °F - -31.0 °F 76% 30.16 in 10.0 mi Calm Calm - N/A   Scattered Clouds
8:34 PM -25.6 °F - -31.0 °F 76% 30.16 in 10.0 mi Calm Calm - N/A   Clear
8:54 PM -25.6 °F - -29.2 °F 83% 30.16 in 10.0 mi Calm Calm - N/A   Clear
9:14 PM -23.8 °F - -29.2 °F 76% 30.16 in 10.0 mi Calm Calm - N/A   Clear
9:34 PM -23.8 °F - -29.2 °F 76% 30.17 in 10.0 mi Calm Calm - N/A   Clear
9:54 PM -23.8 °F - -29.2 °F 76% 30.17 in 10.0 mi Calm Calm - N/A   Clear
10:14 PM -23.8 °F - -27.4 °F 83% 30.18 in 5.0 mi Calm Calm - N/A   Haze
10:34 PM -20.2 °F - -25.6 °F 76% 30.18 in 1.5 mi Calm Calm - N/A Snow Light Snow
10:54 PM -20.2 °F - -25.6 °F 76% 30.19 in 2.5 mi Calm Calm - N/A Snow Light Snow
11:14 PM -20.2 °F -30.9 °F -25.6 °F 76% 30.19 in 10.0 mi West 3.5 mph - N/A   Scattered Clouds
11:54 PM -22.0 °F - -27.4 °F 76% 30.20 in 10.0 mi Calm Calm - N/A   Clear